{"data":{"norad_id":64180,"epoch":"2026-05-25T03:33:15.312960Z","epoch_age_seconds":62168,"freshness":"FRESH","line1":"1 64180U 25113L   26145.14809390  .00022814  00000+0  78058-3 0  9990","line2":"2 64180  53.1578  95.8155 0001371  86.2415 273.8742 15.30177439 56735","mean_motion":15.30177439,"eccentricity":0.0001371,"inclination_deg":53.1578,"raan_deg":95.8155,"arg_perigee_deg":86.2415,"mean_anomaly_deg":273.8742,"bstar":0.00078058,"rev_number":5673,"period_min":94.106733199587,"perigee_km":474.34282952204,"apogee_km":476.22203713065,"semimajor_km":6853.4194333263,"source":"CELESTRAK","updated_at":"2026-05-25T13:38:20.311332Z"}}